This demonstration page uses our WeatherBlox Daily Observations layout. Learn more.

Left ArrowRight Arrow

Hourly Observations for November 19, 2020

Temp ( °F °C ) Dew Point ( °F °C ) Humidity (%) Winds ( mph kmh ) Pressure ( in mb ) Visibility ( mi km ) Precip ( " mm )
12:51 am 00:51 Clear 57 13.9 31 -0.6 37 37 SE 7 11 29.99 1016 10 16 0.00 0.00
1:51 am 01:51 Clear 54 12.2 31 -0.6 42 42 undefined N/A 30.00 1016 10 16 0.00 0.00
2:51 am 02:51 Clear 52 11.1 30 -1.1 43 43 N 5 7 30.00 1016 10 16 0.00 0.00
3:51 am 03:51 Clear 50 10 29 -1.7 44 44 NNE 3 6 30.02 1017 10 16 0.00 0.00
4:51 am 04:51 Clear 51 10.6 30 -1.1 44 44 Calm 30.02 1017 10 16 0.00 0.00
5:51 am 05:51 Clear 49 9.4 29 -1.7 46 46 ESE 3 6 30.05 1018 10 16 0.00 0.00
6:51 am 06:51 Clear 51 10.6 31 -0.6 46 46 SSE 6 9 30.06 1018 10 16 0.00 0.00
7:51 am 07:51 Sunny 55 12.8 32 0 42 42 S 6 9 30.08 1019 10 16 0.00 0.00
8:51 am 08:51 Sunny 64 17.8 36 2.2 35 35 SE 8 13 30.08 1019 10 16 0.00 0.00
9:51 am 09:51 Sunny 72 22.2 39 3.9 30 30 E 9 15 30.07 1018 10 16 0.00 0.00
10:51 am 10:51 Sunny 76 24.4 37 2.8 24 24 ESE 6 9 30.06 1018 10 16 0.00 0.00
11:51 am 11:51 Sunny 79 26.1 37 2.8 22 22 ESE 5 7 30.04 1017 10 16 0.00 0.00
12:51 pm 12:51 Sunny 82 27.8 38 3.3 21 21 VRB 5 7 29.99 1016 10 16 0.00 0.00
1:51 pm 13:51 Sunny 84 28.9 39 3.9 20 20 NW 5 7 29.98 1015 10 16 0.00 0.00
2:51 pm 14:51 Sunny 85 29.4 38 3.3 19 19 WNW 7 11 29.97 1015 10 16 0.00 0.00
3:51 pm 15:51 Sunny 84 28.9 38 3.3 19 19 W 8 13 29.97 1015 10 16 0.00 0.00
4:51 pm 16:51 Sunny 81 27.2 37 2.8 21 21 WNW 8 13 29.98 1015 10 16 0.00 0.00
5:51 pm 17:51 Clear 73 22.8 34 1.1 24 24 WNW 8 13 30.00 1016 10 16 0.00 0.00
6:51 pm 18:51 Clear 70 21.1 34 1.1 27 27 WNW 9 15 30.01 1016 10 16 0.00 0.00
7:51 pm 19:51 Clear 65 18.3 34 1.1 32 32 NW 7 11 30.02 1017 10 16 0.00 0.00
8:51 pm 20:51 Clear 68 20 34 1.1 28 28 WNW 8 13 30.02 1017 10 16 0.00 0.00
9:51 pm 21:51 Clear 65 18.3 35 1.7 33 33 Calm 30.02 1017 10 16 0.00 0.00
10:51 pm 22:51 Clear 59 15 33 0.6 38 38 SE 5 7 30.04 1017 10 16 0.00 0.00
11:51 pm 23:51 Clear 57 13.9 33 0.6 41 41 E 5 7 30.03 1017 10 16 0.00 0.00

Powered by AerisWeather